Pope Field Airport, NC

8:08 AM EDT on June 26, 2017 (GMT -0400)
Pope Field Airport

Weather History for KPOB - October, 2013

Change the Weather History Date:

Wednesday, October 16, 2013

  Actual Average Record
Temperature  
Mean Temperature 66 °F -  
Max Temperature 70 °F 72 °F 88 °F (1989)
Min Temperature 61 °F 48 °F 36 °F (1987)
Cooling Degree Days 1    
Growing Degree Days 16 (Base 50)    
Moisture  
Dew Point 62 °F    
Average Humidity 88    
Maximum Humidity 97    
Minimum Humidity 72    
Precipitation  
Precipitation 0.00 in - - ()
Sea Level Pressure  
Sea Level Pressure 30.03 in    
Wind  
Wind Speed 3 mph (NE)    
Max Wind Speed 6 mph    
Max Gust Speed -    
Visibility 10 miles    
Events      
Averages and records for this station are not official NWS values.
T = Trace of Precipitation, MM = Missing Value Source: NWS Daily Summary

Daily Weather History Graph

Daily Weather History Graph

Search for Another Location

Airport or City:

Trip Planner

Search our weather history database for the weather conditions in past years. The results will help you decide how hot, cold, wet, or windy it might be!

Date:

Astronomy

Oct. 16, 2013 Rise Set
Actual Time 7:23 AM EDT 6:39 PM EDT
Civil Twilight 6:57 AM EDT 7:04 PM EDT
Nautical Twilight 6:28 AM EDT 7:34 PM EDT
Astronomical Twilight 5:58 AM EDT 8:03 PM EDT
Moon 5:14 PM EDT (10/16) 4:53 AM EDT (10/16)
Length of Visible Light 12h 07m
Length of Day
11h 16m
Waxing Gibbous, 94% of the Moon is Illuminated
Oct 16
Waxing Gibbous
Oct 18
Full
Oct 26
Last Quarter
Nov 3
New
Nov 10
First Quarter

Hourly Weather History & Observations

Time (EDT) Temp. Dew Point Humidity Pressure Visibility Wind Dir Wind Speed Gust Speed Precip Events Conditions
12:58 AM 65.1 °F 61.9 °F 89% 30.07 in 10.0 mi North 2.3 mph - N/A   Overcast
1:53 AM 64.4 °F 62.6 °F 94% 30.05 in 10.0 mi NNE 3.5 mph - N/A   Overcast
1:58 AM 65.1 °F 61.9 °F 89% 30.06 in 10.0 mi NNE 3.5 mph - N/A   Overcast
2:03 AM 64.4 °F 62.6 °F 94% 30.05 in 10.0 mi NNE 3.5 mph - N/A   Overcast
2:58 AM 64.9 °F 62.1 °F 90% 30.05 in 10.0 mi NE 2.3 mph - N/A   Overcast
3:08 AM 64.4 °F 62.6 °F 94% 30.04 in 10.0 mi NE 3.5 mph - N/A   Overcast
3:33 AM 64.4 °F 62.6 °F 94% 30.03 in 10.0 mi NE 3.5 mph - N/A   Overcast
3:58 AM 64.4 °F 62.1 °F 92% 30.03 in 10.0 mi NNE 3.5 mph - N/A   Overcast
4:28 AM 64.4 °F 62.6 °F 94% 30.02 in 10.0 mi NNE 3.5 mph - N/A   Overcast
4:58 AM 64.4 °F 61.7 °F 91% 30.03 in 10.0 mi NE 4.6 mph - N/A   Overcast
5:58 AM 64.2 °F 61.9 °F 92% 30.04 in 10.0 mi NE 4.6 mph - N/A   Overcast
6:39 AM 64.4 °F 62.6 °F 94% 30.03 in 10.0 mi NE 4.6 mph - N/A   Overcast
6:49 AM 64.4 °F 62.6 °F 94% 30.03 in 10.0 mi NE 3.5 mph - N/A   Overcast
6:58 AM 64.0 °F 61.9 °F 93% 30.05 in 10.0 mi NE 3.5 mph - N/A   Overcast
7:18 AM 64.4 °F 62.6 °F 94% 30.04 in 10.0 mi ENE 2.3 mph - N/A   Overcast
7:23 AM 64.4 °F 62.6 °F 94% 30.04 in 10.0 mi NE 3.5 mph - N/A   Overcast
7:28 AM 64.4 °F 62.6 °F 94% 30.04 in 10.0 mi ENE 3.5 mph - N/A   Overcast
7:50 AM 64.4 °F 62.6 °F 94% 30.05 in 10.0 mi ENE 4.6 mph - N/A   Overcast
7:58 AM 63.9 °F 61.9 °F 93% 30.06 in 10.0 mi NE 3.5 mph - N/A   Overcast
8:26 AM 64.4 °F 62.6 °F 94% 30.05 in 10.0 mi ENE 4.6 mph - N/A   Overcast
8:58 AM 64.2 °F 62.2 °F 93% 30.07 in 10.0 mi NE 4.6 mph - N/A   Overcast
9:03 AM 64.4 °F 62.6 °F 94% 30.06 in 10.0 mi NE 4.6 mph - N/A   Overcast
9:23 AM 64.4 °F 62.6 °F 94% 30.05 in 10.0 mi ENE 4.6 mph - N/A   Overcast
9:33 AM 64.4 °F 62.6 °F 94% 30.06 in 10.0 mi ENE 4.6 mph - N/A   Overcast
9:38 AM 64.4 °F 62.6 °F 94% 30.05 in 10.0 mi East 4.6 mph - N/A   Overcast
9:46 AM 66.2 °F 62.6 °F 88% 30.05 in 10.0 mi NE 5.8 mph - N/A   Overcast
9:56 AM 66.2 °F 62.6 °F 88% 30.05 in 10.0 mi Variable 3.5 mph - N/A   Overcast
9:58 AM 65.8 °F 62.1 °F 88% 30.06 in 10.0 mi Variable 3.5 mph - N/A   Overcast
10:03 AM 66.2 °F 62.6 °F 88% 30.05 in 10.0 mi NNE 3.5 mph - N/A   Overcast
10:18 AM 66.2 °F 60.8 °F 83% 30.06 in 10.0 mi North 5.8 mph - N/A   Overcast
10:53 AM 66.2 °F 60.8 °F 83% 30.06 in 10.0 mi NNE 4.6 mph - N/A   Overcast
10:58 AM 66.4 °F 60.6 °F 82% 30.07 in 10.0 mi NE 4.6 mph - N/A   Overcast
11:03 AM 66.2 °F 60.8 °F 83% 30.06 in 10.0 mi ENE 4.6 mph - N/A   Overcast
11:55 AM 67.6 °F 60.6 °F 78% 30.04 in 10.0 mi Calm Calm - N/A   Overcast
12:58 PM 68.2 °F 60.4 °F 76% 30.04 in 10.0 mi Variable 1.2 mph - N/A   Overcast
1:08 PM 68.0 °F 60.8 °F 78% 30.03 in 10.0 mi NNE 3.5 mph - N/A   Overcast
1:38 PM 68.0 °F 60.8 °F 78% 30.02 in 10.0 mi NNW 2.3 mph - N/A   Overcast
1:58 PM 68.4 °F 60.8 °F 77% 30.02 in 10.0 mi NNW 1.2 mph - N/A   Overcast
2:58 PM 69.4 °F 60.8 °F 74% 30.00 in 10.0 mi North 1.2 mph - N/A   Overcast
3:58 PM 69.6 °F 61.0 °F 74% 30.00 in 10.0 mi East 3.5 mph - N/A   Overcast
4:58 PM 69.4 °F 60.6 °F 73% 29.99 in 10.0 mi Calm Calm - N/A   Overcast
5:58 PM 70.2 °F 60.8 °F 72% 29.99 in 10.0 mi North 2.3 mph - N/A   Mostly Cloudy
6:03 PM 69.8 °F 60.8 °F 73% 29.98 in 10.0 mi North 1.2 mph - N/A   Scattered Clouds
6:58 PM 65.7 °F 61.3 °F 86% 29.99 in 10.0 mi Calm Calm - N/A   Mostly Cloudy
7:58 PM 63.3 °F 61.3 °F 93% 30.00 in 10.0 mi ENE 2.3 mph - N/A   Mostly Cloudy
8:58 PM 64.8 °F 61.3 °F 89% 30.00 in 10.0 mi Calm Calm - N/A   Overcast
9:58 PM 62.4 °F 61.0 °F 95% 30.00 in 10.0 mi ENE 2.3 mph - N/A   Scattered Clouds
10:58 PM 62.4 °F 60.6 °F 94% 30.01 in 10.0 mi Calm Calm - N/A   Scattered Clouds
11:58 PM 61.3 °F 60.4 °F 97% 29.98 in 10.0 mi Calm Calm - N/A   Partly Cloudy